Weather History for KBNA - July, 2013

Change the Weather History Date:

Friday, July 26, 2013

  Actual Average Record
Temperature  
Mean Temperature 76 °F 80 °F  
Max Temperature 89 °F 89 °F 103 °F (1952)
Min Temperature 63 °F 70 °F 59 °F (1911)
Degree Days  
Heating Degree Days 0    
Month to date heating degree days 0  
Since 1 June heating degree days 0  
Since 1 July heating degree days 0  
Cooling Degree Days 11    
Month to date cooling degree days 358  
Year to date cooling degree days 935  
Since 1 June cooling degree days 728  
Growing Degree Days 26 (Base 50)    
Moisture  
Dew Point 61 °F    
Average Humidity 67    
Maximum Humidity 93    
Minimum Humidity 40    
Precipitation  
Precipitation 0.00 in 0.11 in 2.40 in (1933)
Month to date precipitation 6.09 3.11  
Year to date precipitation 35.01 28.55  
Snow  
Snow 0.00 in 0.00 in 0.00 in (2002)
Month to date snowfall 0.0 0.0  
Since 1 June snowfall 0.0 0.0  
Since 1 July snowfall 0.0 0.0  
Snow Depth 0.00 in    
Sea Level Pressure  
Sea Level Pressure 30.03 in    
Wind  
Wind Speed 3 mph (NW)    
Max Wind Speed 12 mph    
Max Gust Speed 18 mph    
Visibility 10 miles    
Events Fog    
T = Trace of Precipitation, MM = Missing Value Source: NWS Daily Summary

Daily Weather History Graph

Daily Weather History Graph

Search for Another Location

Airport or City:

Trip Planner

Search our weather history database for the weather conditions in past years. The results will help you decide how hot, cold, wet, or windy it might be!

Date:

Astronomy

Jul. 26, 2013 Rise Set
Actual Time 5:49 AM CDT 7:56 PM CDT
Civil Twilight 5:20 AM CDT 8:25 PM CDT
Nautical Twilight 4:45 AM CDT 9:00 PM CDT
Astronomical Twilight 4:07 AM CDT 9:38 PM CDT
Moon 10:21 PM CDT (7/26) 10:14 AM CDT (7/26)
Length of Visible Light 15h 04m
Length of Day
14h 07m
Waning Gibbous, 80% of the Moon is Illuminated
Jul 26
Waning Gibbous
Jul 29
Last Quarter
Aug 6
New
Aug 14
First Quarter
Aug 20
Full

Hourly Weather History & Observations

Time (CDT) Temp. Heat Index Dew Point Humidity Pressure Visibility Wind Dir Wind Speed Gust Speed Precip Events Conditions
12:53 AM 69.1 °F - 61.0 °F 75% 30.05 in 10.0 mi North 5.8 mph - N/A   Clear
1:53 AM 68.0 °F - 61.0 °F 78% 30.04 in 10.0 mi Calm Calm - N/A   Clear
2:53 AM 66.0 °F - 61.0 °F 84% 30.04 in 10.0 mi Calm Calm - N/A   Clear
3:53 AM 64.0 °F - 61.0 °F 90% 30.04 in 10.0 mi Calm Calm - N/A   Clear
4:53 AM 63.0 °F - 60.1 °F 90% 30.03 in 10.0 mi Calm Calm - N/A   Clear
5:53 AM 63.0 °F - 60.1 °F 90% 30.04 in 10.0 mi Calm Calm - N/A Fog Patches of Fog
6:53 AM 64.9 °F - 62.1 °F 90% 30.06 in 7.0 mi Calm Calm - N/A Fog Patches of Fog
7:53 AM 72.0 °F - 63.0 °F 73% 30.07 in 10.0 mi Calm Calm - N/A   Clear
8:53 AM 75.0 °F - 63.0 °F 66% 30.06 in 10.0 mi SSE 3.5 mph - N/A   Clear
9:53 AM 79.0 °F - 63.0 °F 58% 30.06 in 10.0 mi ESE 4.6 mph - N/A   Partly Cloudy
10:53 AM 82.0 °F 82.7 °F 61.0 °F 49% 30.06 in 10.0 mi Variable 6.9 mph - N/A   Scattered Clouds
11:53 AM 82.0 °F 82.4 °F 60.1 °F 47% 30.06 in 10.0 mi WSW 4.6 mph - N/A   Mostly Cloudy
12:53 PM 84.9 °F 84.8 °F 60.1 °F 43% 30.04 in 10.0 mi West 5.8 mph - N/A   Scattered Clouds
1:53 PM 87.1 °F 86.7 °F 60.1 °F 40% 30.03 in 10.0 mi WNW 3.5 mph - N/A   Mostly Cloudy
2:53 PM 87.1 °F 86.7 °F 60.1 °F 40% 30.02 in 10.0 mi NW 4.6 mph - N/A   Mostly Cloudy
3:53 PM 87.1 °F 87.0 °F 61.0 °F 41% 30.01 in 10.0 mi Calm Calm - N/A   Mostly Cloudy
4:53 PM 84.9 °F 84.8 °F 60.1 °F 43% 30.00 in 10.0 mi Variable 4.6 mph - N/A   Mostly Cloudy
5:53 PM 84.0 °F 84.5 °F 62.1 °F 47% 30.00 in 10.0 mi West 4.6 mph - N/A   Mostly Cloudy
6:53 PM 81.0 °F 81.9 °F 62.1 °F 52% 30.00 in 10.0 mi WNW 5.8 mph - N/A   Mostly Cloudy
7:53 PM 79.0 °F - 64.0 °F 60% 30.00 in 10.0 mi NNW 8.1 mph - N/A   Mostly Cloudy
8:53 PM 77.0 °F - 63.0 °F 62% 30.00 in 10.0 mi NW 6.9 mph - N/A   Overcast
9:53 PM 75.9 °F - 62.1 °F 62% 30.00 in 10.0 mi North 4.6 mph - N/A   Overcast
10:53 PM 75.0 °F - 62.1 °F 64% 29.99 in 10.0 mi NNE 5.8 mph - N/A   Overcast
11:53 PM 73.9 °F - 61.0 °F 64% 29.98 in 10.0 mi NNE 8.1 mph - N/A   Overcast